Time,TemperatureF,DewpointF,PressureIn,WindDirection,WindDirectionDegrees,WindSpeedMPH,WindSpeedGustMPH,Humidity,HourlyPrecipIn,Conditions,Clouds,dailyrainin,SoftwareType,DateUTC
2013-01-27 00:00:00,28.8,23.1,30.31,ENE,68,0.0,0.0,79,0.00,,CLR,0.06,VWS V12.08,2013-01-27 05:00:00,
2013-01-27 00:02:00,28.8,23.1,30.31,ENE,68,0.0,0.0,79,0.00,,CLR,0.06,VWS V12.08,2013-01-27 05:02:00,
2013-01-27 00:03:00,28.8,23.1,30.31,ENE,68,0.0,0.0,79,0.00,,CLR,0.06,VWS V12.08,2013-01-27 05:03:00,
2013-01-27 00:08:00,28.6,22.9,30.31,ENE,68,0.0,0.0,79,0.00,,CLR,0.06,VWS V12.08,2013-01-27 05:08:00,
2013-01-27 00:13:00,28.6,23.2,30.32,ENE,68,0.0,0.0,80,0.00,,CLR,0.06,VWS V12.08,2013-01-27 05:13:00,
2013-01-27 00:18:00,28.6,23.2,30.32,ENE,68,0.0,0.0,80,0.00,,CLR,0.06,VWS V12.08,2013-01-27 05:18:00,
2013-01-27 00:23:00,28.6,23.2,30.32,ENE,68,0.0,0.0,80,0.00,,CLR,0.06,VWS V12.08,2013-01-27 05:23:00,
2013-01-27 00:28:00,28.6,23.2,30.32,ENE,68,0.0,0.0,80,0.00,,CLR,0.06,VWS V12.08,2013-01-27 05:28:00,
2013-01-27 00:33:00,28.2,22.9,30.32,ENE,68,0.0,0.0,80,0.00,,CLR,0.06,VWS V12.08,2013-01-27 05:33:00,
2013-01-27 00:38:00,28.2,22.9,30.32,ENE,68,0.0,0.0,80,0.00,,CLR,0.06,VWS V12.08,2013-01-27 05:38:00,
2013-01-27 00:43:00,28.0,22.7,30.32,ENE,68,0.0,0.0,80,0.00,,CLR,0.06,VWS V12.08,2013-01-27 05:43:00,
2013-01-27 00:48:00,28.0,22.7,30.32,ENE,68,0.0,0.0,80,0.00,,CLR,0.06,VWS V12.08,2013-01-27 05:48:00,
2013-01-27 00:53:00,28.0,22.7,30.32,ENE,68,0.0,0.0,80,0.00,,CLR,0.06,VWS V12.08,2013-01-27 05:53:00,
2013-01-27 00:58:00,28.0,22.7,30.32,ENE,68,0.0,0.0,80,0.00,,CLR,0.06,VWS V12.08,2013-01-27 05:58:00,
2013-01-27 01:03:00,27.7,22.3,30.32,ENE,68,0.0,0.0,80,0.00,,CLR,0.06,VWS V12.08,2013-01-27 06:03:00,
2013-01-27 01:08:00,27.7,22.3,30.32,ENE,68,0.0,0.0,80,0.00,,CLR,0.06,VWS V12.08,2013-01-27 06:08:00,
2013-01-27 01:13:00,27.7,22.3,30.32,ENE,68,0.0,0.0,80,0.00,,CLR,0.06,VWS V12.08,2013-01-27 06:13:00,
2013-01-27 01:18:00,27.7,22.3,30.32,ENE,68,0.0,0.0,80,0.00,,CLR,0.06,VWS V12.08,2013-01-27 06:18:00,
2013-01-27 01:23:00,27.7,22.3,30.33,ENE,68,0.0,0.0,80,0.00,,CLR,0.06,VWS V12.08,2013-01-27 06:23:00,
2013-01-27 01:28:00,27.9,22.5,30.34,ENE,68,0.0,0.0,80,0.00,,CLR,0.06,VWS V12.08,2013-01-27 06:28:00,
2013-01-27 01:33:00,28.0,22.7,30.34,ENE,68,0.0,0.0,80,0.00,,CLR,0.06,VWS V12.08,2013-01-27 06:33:00,
2013-01-27 01:38:00,28.0,22.7,30.34,ENE,68,0.0,0.0,80,0.00,,CLR,0.06,VWS V12.08,2013-01-27 06:38:00,
2013-01-27 01:43:00,28.0,22.7,30.34,ENE,68,0.0,0.0,80,0.00,,CLR,0.06,VWS V12.08,2013-01-27 06:43:00,
2013-01-27 01:48:00,28.0,22.7,30.35,ENE,68,0.0,0.0,80,0.00,,CLR,0.06,VWS V12.08,2013-01-27 06:48:00,
2013-01-27 01:53:00,28.0,23.0,30.35,ENE,68,0.0,0.0,81,0.00,,CLR,0.06,VWS V12.08,2013-01-27 06:53:00,
2013-01-27 01:58:00,28.2,23.1,30.35,ENE,68,0.0,0.0,81,0.00,,CLR,0.06,VWS V12.08,2013-01-27 06:58:00,
2013-01-27 02:03:00,28.2,23.1,30.35,ENE,68,0.0,0.0,81,0.00,,CLR,0.06,VWS V12.08,2013-01-27 07:03:00,
2013-01-27 02:08:00,28.6,23.5,30.35,ENE,68,0.0,0.0,81,0.00,,CLR,0.06,VWS V12.08,2013-01-27 07:08:00,
2013-01-27 02:13:00,28.6,23.5,30.36,ENE,68,0.0,0.0,81,0.00,,CLR,0.06,VWS V12.08,2013-01-27 07:13:00,
2013-01-27 02:18:00,28.8,23.7,30.36,ENE,68,0.0,0.0,81,0.00,,CLR,0.06,VWS V12.08,2013-01-27 07:18:00,
2013-01-27 02:23:00,28.9,23.9,30.35,ENE,68,0.0,0.0,81,0.00,,CLR,0.06,VWS V12.08,2013-01-27 07:23:00,
2013-01-27 02:28:00,28.9,23.9,30.36,ENE,68,0.0,0.0,81,0.00,,CLR,0.06,VWS V12.08,2013-01-27 07:28:00,
2013-01-27 02:33:00,28.9,23.6,30.36,ENE,68,0.0,0.0,80,0.00,,CLR,0.06,VWS V12.08,2013-01-27 07:33:00,
2013-01-27 02:38:00,28.9,23.6,30.36,ENE,68,0.0,0.0,80,0.00,,CLR,0.06,VWS V12.08,2013-01-27 07:38:00,
2013-01-27 02:43:00,28.9,23.6,30.36,ENE,68,0.0,0.0,80,0.00,,CLR,0.06,VWS V12.08,2013-01-27 07:43:00,
2013-01-27 02:48:00,28.9,23.6,30.37,ENE,68,0.0,0.0,80,0.00,,CLR,0.06,VWS V12.08,2013-01-27 07:48:00,
2013-01-27 02:53:00,28.9,23.6,30.37,ENE,68,0.0,0.0,80,0.00,,CLR,0.06,VWS V12.08,2013-01-27 07:53:00,
2013-01-27 02:58:00,28.8,23.4,30.37,ENE,68,0.0,0.0,80,0.00,,CLR,0.06,VWS V12.08,2013-01-27 07:58:00,
2013-01-27 03:03:00,28.8,23.4,30.37,ENE,68,0.0,0.0,80,0.00,,CLR,0.06,VWS V12.08,2013-01-27 08:03:00,
2013-01-27 03:08:00,28.8,23.4,30.37,ENE,68,0.0,0.0,80,0.00,,CLR,0.06,VWS V12.08,2013-01-27 08:08:00,
2013-01-27 03:13:00,28.8,23.4,30.37,ENE,68,0.0,0.0,80,0.00,,CLR,0.06,VWS V12.08,2013-01-27 08:13:00,
2013-01-27 03:18:00,28.8,23.4,30.38,ENE,68,0.0,0.0,80,0.00,,CLR,0.06,VWS V12.08,2013-01-27 08:18:00,
2013-01-27 03:23:00,28.8,23.4,30.38,ENE,68,0.0,0.0,80,0.00,,CLR,0.06,VWS V12.08,2013-01-27 08:23:00,
2013-01-27 03:28:00,28.8,23.4,30.38,ENE,68,0.0,0.0,80,0.00,,CLR,0.06,VWS V12.08,2013-01-27 08:28:00,
2013-01-27 03:33:00,28.8,23.4,30.38,ENE,68,0.0,0.0,80,0.00,,CLR,0.06,VWS V12.08,2013-01-27 08:33:00,
2013-01-27 03:38:00,28.6,23.2,30.37,ENE,68,0.0,0.0,80,0.00,,CLR,0.06,VWS V12.08,2013-01-27 08:38:00,
2013-01-27 03:43:00,28.6,22.9,30.37,ENE,68,0.0,0.0,79,0.00,,CLR,0.06,VWS V12.08,2013-01-27 08:43:00,
2013-01-27 03:48:00,28.6,22.9,30.37,ENE,68,0.0,0.0,79,0.00,,CLR,0.06,VWS V12.08,2013-01-27 08:48:00,
2013-01-27 03:53:00,28.6,22.9,30.37,ENE,68,0.0,0.0,79,0.00,,CLR,0.06,VWS V12.08,2013-01-27 08:53:00,
2013-01-27 03:58:00,28.6,22.9,30.37,ENE,68,0.0,0.0,79,0.00,,CLR,0.06,VWS V12.08,2013-01-27 08:58:00,
2013-01-27 04:03:00,28.2,22.6,30.37,ENE,68,0.0,0.0,79,0.00,,CLR,0.06,VWS V12.08,2013-01-27 09:03:00,
2013-01-27 04:08:00,28.2,22.6,30.37,ENE,68,0.0,0.0,79,0.00,,CLR,0.06,VWS V12.08,2013-01-27 09:08:00,
2013-01-27 04:13:00,28.2,22.6,30.37,ENE,68,0.0,0.0,79,0.00,,CLR,0.06,VWS V12.08,2013-01-27 09:13:00,
2013-01-27 04:18:00,28.2,22.6,30.37,ENE,68,0.0,0.0,79,0.00,,CLR,0.06,VWS V12.08,2013-01-27 09:18:00,
2013-01-27 04:23:00,28.2,22.6,30.37,ENE,68,0.0,0.0,79,0.00,,CLR,0.06,VWS V12.08,2013-01-27 09:23:00,
2013-01-27 04:28:00,28.2,22.6,30.37,ENE,68,0.0,0.0,79,0.00,,CLR,0.06,VWS V12.08,2013-01-27 09:28:00,
2013-01-27 04:33:00,28.0,22.4,30.37,ENE,68,0.0,0.0,79,0.00,,CLR,0.06,VWS V12.08,2013-01-27 09:33:00,
2013-01-27 04:38:00,28.0,22.4,30.37,ENE,68,0.0,0.0,79,0.00,,CLR,0.06,VWS V12.08,2013-01-27 09:38:00,
2013-01-27 04:43:00,28.0,22.4,30.37,ENE,68,0.0,0.0,79,0.00,,CLR,0.06,VWS V12.08,2013-01-27 09:43:00,
2013-01-27 04:48:00,28.0,22.4,30.37,ENE,68,0.0,0.0,79,0.00,,CLR,0.06,VWS V12.08,2013-01-27 09:48:00,
2013-01-27 04:53:00,28.0,22.4,30.38,ENE,68,0.0,0.0,79,0.00,,CLR,0.06,VWS V12.08,2013-01-27 09:53:00,
2013-01-27 04:58:00,28.0,22.4,30.38,ENE,68,0.0,0.0,79,0.00,,CLR,0.06,VWS V12.08,2013-01-27 09:58:00,
2013-01-27 05:03:00,28.0,22.4,30.39,ENE,68,0.0,0.0,79,0.00,,CLR,0.06,VWS V12.08,2013-01-27 10:03:00,
2013-01-27 05:08:00,27.7,22.0,30.39,ENE,68,0.0,0.0,79,0.00,,CLR,0.06,VWS V12.08,2013-01-27 10:08:00,
2013-01-27 05:13:00,27.7,22.0,30.39,ENE,68,0.0,0.0,79,0.00,,CLR,0.06,VWS V12.08,2013-01-27 10:13:00,
2013-01-27 05:18:00,27.7,22.0,30.39,ENE,68,0.0,0.0,79,0.00,,CLR,0.06,VWS V12.08,2013-01-27 10:18:00,
2013-01-27 05:23:00,27.5,21.9,30.39,ENE,68,0.0,0.0,79,0.00,,CLR,0.06,VWS V12.08,2013-01-27 10:23:00,
2013-01-27 05:28:00,27.5,21.9,30.39,ENE,68,0.0,0.0,79,0.00,,CLR,0.06,VWS V12.08,2013-01-27 10:28:00,
2013-01-27 05:33:00,27.5,21.9,30.39,ENE,68,0.0,0.0,79,0.00,,CLR,0.06,VWS V12.08,2013-01-27 10:33:00,
2013-01-27 05:38:00,27.5,21.9,30.39,ENE,68,0.0,0.0,79,0.00,,CLR,0.06,VWS V12.08,2013-01-27 10:38:00,
2013-01-27 05:43:00,27.3,21.7,30.40,ENE,68,0.0,0.0,79,0.00,,CLR,0.06,VWS V12.08,2013-01-27 10:43:00,
2013-01-27 05:48:00,27.1,21.5,30.40,ENE,68,0.0,0.0,79,0.00,,CLR,0.06,VWS V12.08,2013-01-27 10:48:00,
2013-01-27 05:53:00,27.1,21.5,30.40,ENE,68,0.0,0.0,79,0.00,,CLR,0.06,VWS V12.08,2013-01-27 10:53:00,
2013-01-27 05:58:00,27.1,21.5,30.40,ENE,68,0.0,0.0,79,0.00,,CLR,0.06,VWS V12.08,2013-01-27 10:58:00,
2013-01-27 06:03:00,27.0,21.3,30.40,ENE,68,0.0,0.0,79,0.00,,CLR,0.06,VWS V12.08,2013-01-27 11:03:00,
2013-01-27 06:08:00,27.0,21.3,30.40,ENE,68,0.0,0.0,79,0.00,,CLR,0.06,VWS V12.08,2013-01-27 11:08:00,
2013-01-27 06:13:00,26.8,21.1,30.40,ENE,68,0.0,0.0,79,0.00,,CLR,0.06,VWS V12.08,2013-01-27 11:13:00,
2013-01-27 06:18:00,26.8,21.1,30.40,ENE,68,0.0,0.0,79,0.00,,CLR,0.06,VWS V12.08,2013-01-27 11:18:00,
2013-01-27 06:23:00,26.8,21.1,30.40,ENE,68,0.0,0.0,79,0.00,,CLR,0.06,VWS V12.08,2013-01-27 11:23:00,
2013-01-27 06:28:00,26.8,21.1,30.40,ENE,68,0.0,0.0,79,0.00,,CLR,0.06,VWS V12.08,2013-01-27 11:28:00,
2013-01-27 06:33:00,26.8,21.1,30.41,ENE,68,0.0,0.0,79,0.00,,CLR,0.06,VWS V12.08,2013-01-27 11:33:00,
2013-01-27 06:38:00,26.6,21.0,30.41,ENE,68,0.0,0.0,79,0.00,,CLR,0.06,VWS V12.08,2013-01-27 11:38:00,
2013-01-27 06:43:00,26.4,20.8,30.41,ENE,68,0.0,0.0,79,0.00,,CLR,0.06,VWS V12.08,2013-01-27 11:43:00,
2013-01-27 06:48:00,26.4,20.8,30.42,ENE,68,0.0,0.0,79,0.00,,CLR,0.06,VWS V12.08,2013-01-27 11:48:00,
2013-01-27 06:53:00,26.4,20.8,30.42,ENE,68,0.0,0.0,79,0.00,,CLR,0.06,VWS V12.08,2013-01-27 11:53:00,
2013-01-27 06:58:00,26.4,20.8,30.42,ENE,68,0.0,0.0,79,0.00,,CLR,0.06,VWS V12.08,2013-01-27 11:58:00,
2013-01-27 07:03:00,26.4,20.8,30.43,ENE,68,0.0,0.0,79,0.00,,CLR,0.06,VWS V12.08,2013-01-27 12:03:00,
2013-01-27 07:08:00,26.2,20.6,30.42,ENE,68,0.0,0.0,79,0.00,,CLR,0.06,VWS V12.08,2013-01-27 12:08:00,
2013-01-27 07:13:00,26.2,20.6,30.42,ENE,68,0.0,0.0,79,0.00,,CLR,0.06,VWS V12.08,2013-01-27 12:13:00,
2013-01-27 07:18:00,26.2,20.6,30.42,ENE,68,0.0,0.0,79,0.00,,CLR,0.06,VWS V12.08,2013-01-27 12:18:00,
2013-01-27 07:23:00,26.2,20.6,30.43,ENE,68,0.0,0.0,79,0.00,,CLR,0.06,VWS V12.08,2013-01-27 12:23:00,
2013-01-27 07:28:00,26.2,20.6,30.43,ENE,68,0.0,0.0,79,0.00,,CLR,0.06,VWS V12.08,2013-01-27 12:28:00,
2013-01-27 07:33:00,26.2,20.6,30.44,ENE,68,0.0,0.0,79,0.00,,CLR,0.06,VWS V12.08,2013-01-27 12:33:00,
2013-01-27 07:38:00,26.4,20.8,30.44,ENE,68,0.0,0.0,79,0.00,,CLR,0.06,VWS V12.08,2013-01-27 12:38:00,
2013-01-27 07:43:00,26.4,21.1,30.45,ENE,68,0.0,0.0,80,0.00,,CLR,0.06,VWS V12.08,2013-01-27 12:43:00,
2013-01-27 07:48:00,26.4,20.8,30.44,ENE,68,0.0,0.0,79,0.00,,CLR,0.06,VWS V12.08,2013-01-27 12:48:00,
2013-01-27 07:53:00,26.6,21.0,30.45,ENE,68,0.0,0.0,79,0.00,,CLR,0.06,VWS V12.08,2013-01-27 12:53:00,
2013-01-27 07:58:00,26.6,21.0,30.45,ENE,68,0.0,0.0,79,0.00,,CLR,0.06,VWS V12.08,2013-01-27 12:58:00,
2013-01-27 08:03:00,27.0,21.3,30.45,ENE,68,0.0,0.0,79,0.00,,CLR,0.06,VWS V12.08,2013-01-27 13:03:00,
2013-01-27 08:08:00,27.0,21.3,30.46,ENE,68,0.0,0.0,79,0.00,,CLR,0.06,VWS V12.08,2013-01-27 13:08:00,
2013-01-27 08:13:00,27.1,21.5,30.45,ENE,68,0.0,0.0,79,0.00,,CLR,0.06,VWS V12.08,2013-01-27 13:13:00,
2013-01-27 08:18:00,27.1,21.5,30.45,ENE,68,0.0,0.0,79,0.00,,CLR,0.06,VWS V12.08,2013-01-27 13:18:00,
2013-01-27 08:23:00,27.3,22.0,30.45,ENE,68,0.0,0.0,80,0.00,,CLR,0.06,VWS V12.08,2013-01-27 13:23:00,
2013-01-27 08:28:00,27.7,22.3,30.46,ENE,68,0.0,0.0,80,0.00,,CLR,0.06,VWS V12.08,2013-01-27 13:28:00,
2013-01-27 08:33:00,28.0,22.7,30.46,ENE,68,0.0,0.0,80,0.00,,CLR,0.06,VWS V12.08,2013-01-27 13:33:00,
2013-01-27 08:38:00,28.2,22.9,30.45,ENE,68,0.0,0.0,80,0.00,,CLR,0.06,VWS V12.08,2013-01-27 13:38:00,
2013-01-27 08:43:00,28.6,23.2,30.46,ENE,68,0.0,0.0,80,0.00,,CLR,0.06,VWS V12.08,2013-01-27 13:43:00,
2013-01-27 08:48:00,29.1,23.7,30.46,ENE,68,0.0,0.0,80,0.00,,CLR,0.06,VWS V12.08,2013-01-27 13:48:00,
2013-01-27 08:53:00,29.1,23.7,30.46,ENE,68,0.0,0.0,80,0.00,,CLR,0.06,VWS V12.08,2013-01-27 13:53:00,
2013-01-27 08:58:00,30.2,24.8,30.47,ENE,68,0.0,0.0,80,0.00,,CLR,0.06,VWS V12.08,2013-01-27 13:58:00,
2013-01-27 09:03:00,30.6,24.8,30.47,ENE,68,0.0,0.0,79,0.00,,CLR,0.06,VWS V12.08,2013-01-27 14:03:00,
2013-01-27 09:08:00,30.7,25.0,30.47,ENE,68,0.0,0.0,79,0.00,,CLR,0.06,VWS V12.08,2013-01-27 14:08:00,
2013-01-27 09:13:00,31.1,25.0,30.47,ENE,68,0.0,0.0,78,0.00,,CLR,0.06,VWS V12.08,2013-01-27 14:13:00,
2013-01-27 09:18:00,31.6,25.3,30.48,ENE,68,0.0,0.0,77,0.00,,CLR,0.06,VWS V12.08,2013-01-27 14:18:00,
2013-01-27 09:23:00,31.6,25.3,30.48,ENE,68,0.0,0.0,77,0.00,,CLR,0.06,VWS V12.08,2013-01-27 14:23:00,
2013-01-27 09:28:00,32.2,25.2,30.48,ENE,68,0.0,0.0,75,0.00,,CLR,0.06,VWS V12.08,2013-01-27 14:28:00,
2013-01-27 09:33:00,32.2,25.2,30.48,ENE,68,0.0,0.0,75,0.00,,CLR,0.06,VWS V12.08,2013-01-27 14:33:00,
2013-01-27 09:39:00,32.2,24.5,30.48,ENE,68,0.0,0.0,73,0.00,,CLR,0.06,VWS V12.08,2013-01-27 14:39:00,
2013-01-27 09:44:00,32.7,25.0,30.48,ENE,68,0.0,0.0,73,0.00,,CLR,0.06,VWS V12.08,2013-01-27 14:44:00,
2013-01-27 09:49:00,32.9,24.9,30.48,ENE,68,0.0,0.0,72,0.00,,CLR,0.06,VWS V12.08,2013-01-27 14:49:00,
2013-01-27 09:54:00,33.1,25.0,30.49,ENE,68,0.0,0.0,72,0.00,,CLR,0.06,VWS V12.08,2013-01-27 14:54:00,
2013-01-27 09:59:00,33.4,25.4,30.49,ENE,68,0.0,0.0,72,0.00,,CLR,0.06,VWS V12.08,2013-01-27 14:59:00,
2013-01-27 10:04:00,33.8,25.7,30.49,ENE,68,0.0,0.0,72,0.00,,CLR,0.06,VWS V12.08,2013-01-27 15:04:00,
2013-01-27 10:09:00,34.3,25.9,30.50,NE,45,0.0,0.0,71,0.00,,CLR,0.06,VWS V12.08,2013-01-27 15:09:00,
2013-01-27 10:14:00,34.5,26.1,30.49,NE,45,1.3,1.3,71,0.00,,CLR,0.06,VWS V12.08,2013-01-27 15:14:00,
2013-01-27 10:19:00,34.5,26.1,30.49,NE,45,1.3,1.3,71,0.00,,CLR,0.06,VWS V12.08,2013-01-27 15:19:00,
2013-01-27 10:24:00,34.5,26.1,30.49,NE,45,1.3,1.3,71,0.00,,CLR,0.06,VWS V12.08,2013-01-27 15:24:00,
2013-01-27 10:29:00,36.1,26.6,30.49,NE,45,0.0,1.3,68,0.00,,CLR,0.06,VWS V12.08,2013-01-27 15:29:00,
2013-01-27 10:34:00,36.1,26.3,30.49,NE,45,0.0,1.3,67,0.00,,CLR,0.06,VWS V12.08,2013-01-27 15:34:00,
2013-01-27 10:39:00,36.9,26.9,30.50,ENE,68,0.0,1.3,67,0.00,,CLR,0.06,VWS V12.08,2013-01-27 15:39:00,
2013-01-27 10:44:00,36.9,26.9,30.49,ENE,68,0.0,0.0,67,0.00,,CLR,0.06,VWS V12.08,2013-01-27 15:44:00,
2013-01-27 10:49:00,36.9,26.9,30.49,ENE,68,0.0,0.0,67,0.00,,CLR,0.06,VWS V12.08,2013-01-27 15:49:00,
2013-01-27 10:54:00,37.8,26.7,30.49,NNE,22,0.0,0.0,64,0.00,,CLR,0.06,VWS V12.08,2013-01-27 15:54:00,
2013-01-27 10:59:00,37.9,26.1,30.49,ENE,68,1.6,1.6,62,0.00,,CLR,0.06,VWS V12.08,2013-01-27 15:59:00,
2013-01-27 11:04:00,37.9,26.1,30.49,NE,45,0.0,1.8,62,0.00,,CLR,0.02,VWS V12.08,2013-01-27 16:04:00,
2013-01-27 11:09:00,38.1,26.3,30.49,ENE,68,4.3,4.3,62,0.00,,CLR,0.02,VWS V12.08,2013-01-27 16:09:00,
2013-01-27 11:14:00,38.3,25.6,30.49,North,0,0.0,4.3,60,0.00,,CLR,0.02,VWS V12.08,2013-01-27 16:14:00,
2013-01-27 11:19:00,38.3,25.6,30.50,SSE,158,0.0,4.3,60,0.00,,CLR,0.02,VWS V12.08,2013-01-27 16:19:00,
2013-01-27 11:24:00,38.3,26.0,30.50,East,90,0.0,0.0,61,0.00,,CLR,0.02,VWS V12.08,2013-01-27 16:24:00,
2013-01-27 11:29:00,39.0,26.7,30.49,ENE,68,0.0,0.0,61,0.00,,CLR,0.02,VWS V12.08,2013-01-27 16:29:00,
2013-01-27 11:34:00,39.4,26.7,30.49,ESE,112,0.0,1.1,60,0.00,,CLR,0.02,VWS V12.08,2013-01-27 16:34:00,
2013-01-27 11:39:00,39.6,26.8,30.49,ENE,68,1.8,1.8,60,0.00,,CLR,0.02,VWS V12.08,2013-01-27 16:39:00,
2013-01-27 11:44:00,39.6,26.4,30.49,ENE,68,0.0,3.6,59,0.00,,CLR,0.02,VWS V12.08,2013-01-27 16:44:00,
2013-01-27 11:49:00,39.6,26.8,30.49,ENE,68,0.0,3.6,60,0.00,,CLR,0.02,VWS V12.08,2013-01-27 16:49:00,
2013-01-27 11:54:00,39.6,26.8,30.48,ENE,68,0.0,3.6,60,0.00,,CLR,0.02,VWS V12.08,2013-01-27 16:54:00,
2013-01-27 11:59:00,40.6,27.5,30.48,ENE,68,0.0,3.6,59,0.00,,CLR,0.02,VWS V12.08,2013-01-27 16:59:00,
2013-01-27 12:04:00,40.1,26.5,30.48,NNE,22,0.0,0.0,58,0.00,,CLR,0.02,VWS V12.08,2013-01-27 17:04:00,
2013-01-27 12:09:00,39.6,26.0,30.48,NNE,22,0.0,0.0,58,0.00,,CLR,0.02,VWS V12.08,2013-01-27 17:09:00,
2013-01-27 12:14:00,39.0,25.9,30.47,ENE,68,0.0,0.0,59,0.00,,CLR,0.02,VWS V12.08,2013-01-27 17:14:00,
2013-01-27 12:19:00,39.0,25.9,30.47,NE,45,0.2,0.2,59,0.00,,CLR,0.02,VWS V12.08,2013-01-27 17:19:00,
2013-01-27 12:24:00,39.4,26.3,30.47,East,90,1.1,1.1,59,0.00,,CLR,0.02,VWS V12.08,2013-01-27 17:24:00,
2013-01-27 12:29:00,39.7,26.2,30.47,NW,315,0.0,1.1,58,0.00,,CLR,0.02,VWS V12.08,2013-01-27 17:29:00,
2013-01-27 12:34:00,39.7,26.2,30.47,NW,315,0.0,1.1,58,0.00,,CLR,0.02,VWS V12.08,2013-01-27 17:34:00,
2013-01-27 12:39:00,39.7,26.2,30.47,ESE,112,0.0,1.1,58,0.00,,CLR,0.02,VWS V12.08,2013-01-27 17:39:00,
2013-01-27 12:44:00,39.9,26.4,30.46,West,270,0.0,0.0,58,0.00,,CLR,0.02,VWS V12.08,2013-01-27 17:44:00,
2013-01-27 12:49:00,40.3,26.3,30.46,NNE,22,0.7,2.7,57,0.00,,CLR,0.02,VWS V12.08,2013-01-27 17:49:00,
2013-01-27 12:54:00,40.1,26.1,30.46,ENE,68,0.0,2.7,57,0.00,,CLR,0.02,VWS V12.08,2013-01-27 17:54:00,
2013-01-27 12:59:00,40.5,26.4,30.46,NE,45,0.0,2.7,57,0.00,,CLR,0.02,VWS V12.08,2013-01-27 17:59:00,
2013-01-27 13:04:00,40.3,26.3,30.45,NE,45,0.0,3.1,57,0.00,,CLR,0.00,VWS V12.08,2013-01-27 18:04:00,
2013-01-27 13:09:00,40.5,26.4,30.44,NNE,22,0.0,3.1,57,0.00,,CLR,0.00,VWS V12.08,2013-01-27 18:09:00,
2013-01-27 13:14:00,40.6,26.6,30.44,ENE,68,0.0,4.0,57,0.00,,CLR,0.00,VWS V12.08,2013-01-27 18:14:00,
2013-01-27 13:19:00,40.8,26.8,30.45,NE,45,1.1,4.0,57,0.00,,CLR,0.00,VWS V12.08,2013-01-27 18:19:00,
2013-01-27 13:24:00,40.8,26.4,30.44,NNE,22,0.0,3.4,56,0.00,,CLR,0.00,VWS V12.08,2013-01-27 18:24:00,
2013-01-27 13:29:00,40.6,26.6,30.43,NNE,22,0.0,3.4,57,0.00,,CLR,0.00,VWS V12.08,2013-01-27 18:29:00,
2013-01-27 13:34:00,40.6,27.0,30.44,ENE,68,0.0,3.4,58,0.00,,CLR,0.00,VWS V12.08,2013-01-27 18:34:00,
2013-01-27 13:39:00,41.0,27.0,30.45,NW,315,0.0,3.4,57,0.00,,CLR,0.00,VWS V12.08,2013-01-27 18:39:00,
2013-01-27 13:44:00,40.8,26.4,30.45,ENE,68,0.0,2.9,56,0.00,,CLR,0.00,VWS V12.08,2013-01-27 18:44:00,
2013-01-27 13:49:00,40.8,26.4,30.44,ENE,68,0.0,2.9,56,0.00,,CLR,0.00,VWS V12.08,2013-01-27 18:49:00,
2013-01-27 13:54:00,40.8,26.4,30.43,North,0,0.7,2.9,56,0.00,,CLR,0.00,VWS V12.08,2013-01-27 18:54:00,
2013-01-27 13:59:00,40.8,26.4,30.43,NNE,22,2.9,2.9,56,0.00,,CLR,0.00,VWS V12.08,2013-01-27 18:59:00,
2013-01-27 14:04:00,41.0,26.5,30.42,NNE,22,0.0,1.6,56,0.00,,CLR,0.00,VWS V12.08,2013-01-27 19:04:00,
2013-01-27 14:09:00,41.2,26.7,30.42,ENE,68,0.0,3.1,56,0.00,,CLR,0.00,VWS V12.08,2013-01-27 19:09:00,
2013-01-27 14:14:00,41.5,27.0,30.42,ENE,68,0.0,3.1,56,0.00,,CLR,0.00,VWS V12.08,2013-01-27 19:14:00,
2013-01-27 14:19:00,41.5,27.0,30.42,ENE,68,0.0,3.1,56,0.00,,CLR,0.00,VWS V12.08,2013-01-27 19:19:00,
2013-01-27 14:24:00,41.5,27.0,30.42,ENE,68,0.0,3.4,56,0.00,,CLR,0.00,VWS V12.08,2013-01-27 19:24:00,
2013-01-27 14:29:00,41.7,27.2,30.42,NE,45,0.0,3.4,56,0.00,,CLR,0.00,VWS V12.08,2013-01-27 19:29:00,
2013-01-27 14:34:00,41.7,26.8,30.42,ENE,68,0.0,3.4,55,0.00,,CLR,0.00,VWS V12.08,2013-01-27 19:34:00,
2013-01-27 14:39:00,41.5,27.0,30.41,East,90,0.0,3.4,56,0.00,,CLR,0.00,VWS V12.08,2013-01-27 19:39:00,
2013-01-27 14:44:00,41.5,27.0,30.41,NNE,22,0.0,3.1,56,0.00,,CLR,0.00,VWS V12.08,2013-01-27 19:44:00,
2013-01-27 14:49:00,41.7,27.2,30.42,NNE,22,0.0,3.6,56,0.00,,CLR,0.00,VWS V12.08,2013-01-27 19:49:00,
2013-01-27 14:54:00,41.7,26.8,30.41,NNE,22,0.0,3.6,55,0.00,,CLR,0.00,VWS V12.08,2013-01-27 19:54:00,
2013-01-27 14:59:00,41.7,27.2,30.42,ENE,68,1.1,3.6,56,0.00,,CLR,0.00,VWS V12.08,2013-01-27 19:59:00,
2013-01-27 15:04:00,41.5,27.0,30.42,ENE,68,0.0,1.8,56,0.00,,CLR,0.00,VWS V12.08,2013-01-27 20:04:00,
2013-01-27 15:09:00,41.5,27.0,30.42,NW,315,0.0,2.5,56,0.00,,CLR,0.00,VWS V12.08,2013-01-27 20:09:00,
2013-01-27 15:14:00,41.5,27.0,30.41,NW,315,0.0,3.8,56,0.00,,CLR,0.00,VWS V12.08,2013-01-27 20:14:00,
2013-01-27 15:19:00,41.7,27.2,30.42,WNW,292,0.0,3.8,56,0.00,,CLR,0.00,VWS V12.08,2013-01-27 20:19:00,
2013-01-27 15:24:00,42.1,27.1,30.41,East,90,1.3,1.3,55,0.00,,CLR,0.00,VWS V12.08,2013-01-27 20:24:00,
2013-01-27 15:29:00,42.4,27.9,30.41,ENE,68,0.0,1.3,56,0.00,,CLR,0.00,VWS V12.08,2013-01-27 20:29:00,
2013-01-27 15:34:00,42.6,27.6,30.42,ENE,68,0.0,2.9,55,0.00,,CLR,0.00,VWS V12.08,2013-01-27 20:34:00,
2013-01-27 15:39:00,42.6,27.6,30.41,ENE,68,0.0,2.9,55,0.00,,CLR,0.00,VWS V12.08,2013-01-27 20:39:00,
2013-01-27 15:44:00,42.6,27.6,30.42,ENE,68,0.0,1.6,55,0.00,,CLR,0.00,VWS V12.08,2013-01-27 20:44:00,
2013-01-27 15:49:00,42.6,27.6,30.42,NE,45,0.0,1.6,55,0.00,,CLR,0.00,VWS V12.08,2013-01-27 20:49:00,
2013-01-27 15:54:00,42.4,27.4,30.42,NNE,22,0.0,1.6,55,0.00,,CLR,0.00,VWS V12.08,2013-01-27 20:54:00,
2013-01-27 15:59:00,42.4,27.4,30.42,NNE,22,0.0,1.6,55,0.00,,CLR,0.00,VWS V12.08,2013-01-27 20:59:00,
2013-01-27 16:04:00,42.1,27.1,30.42,NNE,22,0.0,0.0,55,0.00,,CLR,0.00,VWS V12.08,2013-01-27 21:04:00,
2013-01-27 16:09:00,41.9,26.9,30.42,ENE,68,0.0,0.0,55,0.00,,CLR,0.00,VWS V12.08,2013-01-27 21:09:00,
2013-01-27 16:14:00,41.7,26.8,30.42,ENE,68,0.0,0.0,55,0.00,,CLR,0.00,VWS V12.08,2013-01-27 21:14:00,
2013-01-27 16:19:00,41.5,27.0,30.41,ENE,68,0.0,0.0,56,0.00,,CLR,0.00,VWS V12.08,2013-01-27 21:19:00,
2013-01-27 16:24:00,41.5,27.0,30.42,NNE,22,0.0,0.0,56,0.00,,CLR,0.00,VWS V12.08,2013-01-27 21:24:00,
2013-01-27 16:29:00,41.4,26.9,30.42,NE,45,0.0,0.4,56,0.00,,CLR,0.00,VWS V12.08,2013-01-27 21:29:00,
2013-01-27 16:34:00,41.2,26.7,30.42,ENE,68,0.0,0.4,56,0.00,,CLR,0.00,VWS V12.08,2013-01-27 21:34:00,
2013-01-27 16:39:00,41.0,26.5,30.42,SE,135,0.0,0.4,56,0.00,,CLR,0.00,VWS V12.08,2013-01-27 21:39:00,
2013-01-27 16:44:00,40.8,26.8,30.42,SE,135,0.0,0.0,57,0.00,,CLR,0.00,VWS V12.08,2013-01-27 21:44:00,
2013-01-27 16:49:00,40.8,26.8,30.43,NW,315,0.0,0.0,57,0.00,,CLR,0.00,VWS V12.08,2013-01-27 21:49:00,
2013-01-27 16:54:00,40.6,26.6,30.43,NW,315,0.0,0.0,57,0.00,,CLR,0.00,VWS V12.08,2013-01-27 21:54:00,
2013-01-27 16:59:00,40.3,26.3,30.42,NW,315,0.0,0.0,57,0.00,,CLR,0.00,VWS V12.08,2013-01-27 21:59:00,
2013-01-27 17:04:00,40.3,26.3,30.42,NW,315,0.0,0.0,57,0.00,,CLR,0.00,VWS V12.08,2013-01-27 22:04:00,
2013-01-27 17:09:00,40.3,26.3,30.42,ENE,68,0.0,0.0,57,0.00,,CLR,0.00,VWS V12.08,2013-01-27 22:09:00,
2013-01-27 17:14:00,40.1,26.5,30.42,ENE,68,0.0,0.0,58,0.00,,CLR,0.00,VWS V12.08,2013-01-27 22:14:00,
2013-01-27 17:19:00,39.9,26.4,30.43,ENE,68,0.0,0.0,58,0.00,,CLR,0.00,VWS V12.08,2013-01-27 22:19:00,
2013-01-27 17:24:00,39.9,26.4,30.43,ENE,68,0.0,0.0,58,0.00,,CLR,0.00,VWS V12.08,2013-01-27 22:24:00,
2013-01-27 17:29:00,39.9,26.4,30.42,East,90,0.0,0.0,58,0.00,,CLR,0.00,VWS V12.08,2013-01-27 22:29:00,
2013-01-27 17:34:00,39.6,26.0,30.43,East,90,0.0,0.0,58,0.00,,CLR,0.00,VWS V12.08,2013-01-27 22:34:00,
2013-01-27 17:39:00,39.4,26.3,30.43,East,90,0.0,0.0,59,0.00,,CLR,0.00,VWS V12.08,2013-01-27 22:39:00,
2013-01-27 17:44:00,39.4,26.3,30.43,East,90,0.0,0.0,59,0.00,,CLR,0.00,VWS V12.08,2013-01-27 22:44:00,
2013-01-27 17:49:00,39.4,26.3,30.43,East,90,0.0,0.0,59,0.00,,CLR,0.00,VWS V12.08,2013-01-27 22:49:00,
2013-01-27 17:54:00,39.2,26.1,30.44,East,90,0.0,0.0,59,0.00,,CLR,0.00,VWS V12.08,2013-01-27 22:54:00,
2013-01-27 17:59:00,39.0,26.3,30.44,East,90,0.0,0.0,60,0.00,,CLR,0.00,VWS V12.08,2013-01-27 22:59:00,
2013-01-27 18:04:00,39.0,26.3,30.44,East,90,0.0,0.0,60,0.00,,CLR,0.00,VWS V12.08,2013-01-27 23:04:00,
2013-01-27 18:09:00,39.0,26.3,30.43,East,90,0.0,0.0,60,0.00,,CLR,0.00,VWS V12.08,2013-01-27 23:09:00,
2013-01-27 18:14:00,38.8,26.6,30.43,ESE,112,0.0,0.0,61,0.00,,CLR,0.00,VWS V12.08,2013-01-27 23:14:00,
2013-01-27 18:19:00,38.7,26.4,30.43,ESE,112,0.0,0.0,61,0.00,,CLR,0.00,VWS V12.08,2013-01-27 23:19:00,
2013-01-27 18:24:00,38.5,26.2,30.44,ESE,112,0.0,0.0,61,0.00,,CLR,0.00,VWS V12.08,2013-01-27 23:24:00,
2013-01-27 18:29:00,38.5,26.2,30.44,ESE,112,0.0,0.0,61,0.00,,CLR,0.00,VWS V12.08,2013-01-27 23:29:00,
2013-01-27 18:34:00,38.5,26.2,30.44,East,90,0.0,0.0,61,0.00,,CLR,0.00,VWS V12.08,2013-01-27 23:34:00,
2013-01-27 18:39:00,38.5,26.6,30.44,East,90,0.0,0.0,62,0.00,,CLR,0.00,VWS V12.08,2013-01-27 23:39:00,
2013-01-27 18:44:00,38.3,26.4,30.44,East,90,0.0,0.0,62,0.00,,CLR,0.00,VWS V12.08,2013-01-27 23:44:00,
2013-01-27 18:49:00,38.3,26.4,30.44,East,90,0.0,0.0,62,0.00,,CLR,0.00,VWS V12.08,2013-01-27 23:49:00,
2013-01-27 18:54:00,38.3,26.4,30.43,East,90,0.0,0.0,62,0.00,,CLR,0.00,VWS V12.08,2013-01-27 23:54:00,
2013-01-27 18:59:00,38.1,26.3,30.43,East,90,0.0,0.0,62,0.00,,CLR,0.00,VWS V12.08,2013-01-27 23:59:00,
2013-01-27 19:04:00,38.1,26.3,30.44,East,90,0.0,0.0,62,0.00,,CLR,0.00,VWS V12.08,2013-01-28 00:04:00,
2013-01-27 19:09:00,38.1,26.3,30.44,East,90,0.0,0.0,62,0.00,,CLR,0.00,VWS V12.08,2013-01-28 00:09:00,
2013-01-27 19:14:00,37.9,26.5,30.44,East,90,0.0,0.0,63,0.00,,CLR,0.00,VWS V12.08,2013-01-28 00:14:00,
2013-01-27 19:19:00,37.9,26.5,30.44,East,90,0.0,0.0,63,0.00,,CLR,0.00,VWS V12.08,2013-01-28 00:19:00,
2013-01-27 19:24:00,37.8,26.3,30.45,East,90,0.0,0.0,63,0.00,,CLR,0.00,VWS V12.08,2013-01-28 00:24:00,
2013-01-27 19:29:00,37.8,26.3,30.44,SE,135,0.0,0.0,63,0.00,,CLR,0.00,VWS V12.08,2013-01-28 00:29:00,
2013-01-27 19:34:00,37.8,26.7,30.43,SE,135,0.0,0.0,64,0.00,,CLR,0.00,VWS V12.08,2013-01-28 00:34:00,
2013-01-27 19:39:00,37.8,26.7,30.43,SE,135,0.0,0.0,64,0.00,,CLR,0.00,VWS V12.08,2013-01-28 00:39:00,
2013-01-27 19:44:00,37.8,26.7,30.44,ESE,112,0.0,0.0,64,0.00,,CLR,0.00,VWS V12.08,2013-01-28 00:44:00,
2013-01-27 19:49:00,37.8,26.7,30.44,ESE,112,0.0,0.0,64,0.00,,CLR,0.00,VWS V12.08,2013-01-28 00:49:00,
2013-01-27 19:54:00,37.8,26.7,30.44,SE,135,0.0,0.0,64,0.00,,CLR,0.00,VWS V12.08,2013-01-28 00:54:00,
2013-01-27 19:59:00,37.8,26.7,30.44,SE,135,0.0,0.0,64,0.00,,CLR,0.00,VWS V12.08,2013-01-28 00:59:00,
2013-01-27 20:04:00,37.8,27.1,30.43,ESE,112,0.0,0.0,65,0.00,,CLR,0.00,VWS V12.08,2013-01-28 01:04:00,
2013-01-27 20:09:00,37.6,26.9,30.43,ESE,112,0.0,0.0,65,0.00,,CLR,0.00,VWS V12.08,2013-01-28 01:09:00,
2013-01-27 20:14:00,37.6,27.3,30.43,ESE,112,0.0,0.0,66,0.00,,CLR,0.00,VWS V12.08,2013-01-28 01:14:00,
2013-01-27 20:19:00,37.6,26.9,30.44,ESE,112,0.0,0.0,65,0.00,,CLR,0.00,VWS V12.08,2013-01-28 01:19:00,
2013-01-27 20:24:00,37.6,26.9,30.44,ESE,112,0.0,0.0,65,0.00,,CLR,0.00,VWS V12.08,2013-01-28 01:24:00,
2013-01-27 20:29:00,37.6,27.3,30.44,ESE,112,0.0,0.0,66,0.00,,CLR,0.00,VWS V12.08,2013-01-28 01:29:00,
2013-01-27 20:34:00,37.6,27.3,30.43,ESE,112,0.0,0.0,66,0.00,,CLR,0.00,VWS V12.08,2013-01-28 01:34:00,
2013-01-27 20:39:00,37.6,27.3,30.44,ESE,112,0.0,0.0,66,0.00,,CLR,0.00,VWS V12.08,2013-01-28 01:39:00,
2013-01-27 20:45:00,37.4,27.1,30.43,ESE,112,0.0,0.0,66,0.00,,CLR,0.00,VWS V12.08,2013-01-28 01:45:00,
2013-01-27 20:50:00,37.6,26.9,30.43,ESE,112,0.0,0.0,65,0.00,,CLR,0.00,VWS V12.08,2013-01-28 01:50:00,
2013-01-27 20:55:00,37.4,26.7,30.43,ESE,112,0.0,0.0,65,0.00,,CLR,0.00,VWS V12.08,2013-01-28 01:55:00,
2013-01-27 21:00:00,37.2,26.9,30.44,ESE,112,0.0,0.0,66,0.00,,CLR,0.00,VWS V12.08,2013-01-28 02:00:00,
2013-01-27 21:05:00,37.2,26.9,30.44,ESE,112,0.0,0.0,66,0.00,,CLR,0.00,VWS V12.08,2013-01-28 02:05:00,
2013-01-27 21:10:00,37.2,26.9,30.44,ESE,112,0.0,0.0,66,0.00,,CLR,0.00,VWS V12.08,2013-01-28 02:10:00,
2013-01-27 21:15:00,37.2,26.9,30.44,ESE,112,0.0,0.0,66,0.00,,CLR,0.00,VWS V12.08,2013-01-28 02:15:00,
2013-01-27 21:20:00,37.2,26.9,30.43,ESE,112,0.0,0.0,66,0.00,,CLR,0.00,VWS V12.08,2013-01-28 02:20:00,
2013-01-27 21:25:00,37.2,27.3,30.42,ESE,112,0.0,0.0,67,0.00,,CLR,0.00,VWS V12.08,2013-01-28 02:25:00,
2013-01-27 21:30:00,37.2,27.3,30.43,ESE,112,0.0,0.0,67,0.00,,CLR,0.00,VWS V12.08,2013-01-28 02:30:00,
2013-01-27 21:35:00,37.2,27.3,30.43,ESE,112,0.0,0.0,67,0.00,,CLR,0.00,VWS V12.08,2013-01-28 02:35:00,
2013-01-27 21:40:00,37.2,27.3,30.43,ESE,112,0.0,0.0,67,0.00,,CLR,0.00,VWS V12.08,2013-01-28 02:40:00,
2013-01-27 21:45:00,37.2,27.3,30.42,ESE,112,0.0,0.0,67,0.00,,CLR,0.00,VWS V12.08,2013-01-28 02:45:00,
2013-01-27 21:50:00,37.2,27.3,30.42,ESE,112,0.0,0.0,67,0.00,,CLR,0.00,VWS V12.08,2013-01-28 02:50:00,
2013-01-27 21:55:00,37.0,27.5,30.42,ESE,112,0.0,0.0,68,0.00,,CLR,0.00,VWS V12.08,2013-01-28 02:55:00,
2013-01-27 22:00:00,37.0,27.5,30.43,ESE,112,0.0,0.0,68,0.00,,CLR,0.00,VWS V12.08,2013-01-28 03:00:00,
2013-01-27 22:05:00,37.0,27.5,30.42,ESE,112,0.0,0.0,68,0.00,,CLR,0.00,VWS V12.08,2013-01-28 03:05:00,
2013-01-27 22:10:00,37.0,27.5,30.42,ESE,112,0.0,0.0,68,0.00,,CLR,0.00,VWS V12.08,2013-01-28 03:10:00,
2013-01-27 22:15:00,37.0,27.5,30.42,ESE,112,0.0,0.0,68,0.00,,CLR,0.00,VWS V12.08,2013-01-28 03:15:00,
2013-01-27 22:20:00,37.0,27.5,30.41,ESE,112,0.0,0.0,68,0.00,,CLR,0.00,VWS V12.08,2013-01-28 03:20:00,
2013-01-27 22:25:00,37.0,27.5,30.41,ESE,112,0.0,0.0,68,0.00,,CLR,0.00,VWS V12.08,2013-01-28 03:25:00,
2013-01-27 22:30:00,36.9,27.3,30.41,ESE,112,0.0,0.0,68,0.00,,CLR,0.00,VWS V12.08,2013-01-28 03:30:00,
2013-01-27 22:35:00,36.9,27.3,30.41,ESE,112,0.0,0.0,68,0.00,,CLR,0.00,VWS V12.08,2013-01-28 03:35:00,
2013-01-27 22:40:00,36.9,27.3,30.41,ESE,112,0.0,0.0,68,0.00,,CLR,0.00,VWS V12.08,2013-01-28 03:40:00,
2013-01-27 22:45:00,36.9,27.3,30.42,ESE,112,0.0,0.0,68,0.00,,CLR,0.00,VWS V12.08,2013-01-28 03:45:00,
2013-01-27 22:50:00,36.7,27.1,30.42,ESE,112,0.0,0.0,68,0.00,,CLR,0.00,VWS V12.08,2013-01-28 03:50:00,
2013-01-27 22:55:00,36.7,27.5,30.42,ESE,112,0.0,0.0,69,0.00,,CLR,0.00,VWS V12.08,2013-01-28 03:55:00,
2013-01-27 23:00:00,36.9,27.7,30.42,ESE,112,0.0,0.0,69,0.00,,CLR,0.00,VWS V12.08,2013-01-28 04:00:00,
2013-01-27 23:05:00,36.9,28.0,30.41,ESE,112,0.0,0.0,70,0.00,,CLR,0.00,VWS V12.08,2013-01-28 04:05:00,
2013-01-27 23:10:00,36.9,28.0,30.41,ESE,112,0.0,0.0,70,0.00,,CLR,0.00,VWS V12.08,2013-01-28 04:10:00,
2013-01-27 23:15:00,36.9,28.0,30.41,ESE,112,0.0,0.0,70,0.00,,CLR,0.00,VWS V12.08,2013-01-28 04:15:00,
2013-01-27 23:20:00,36.9,28.0,30.41,East,90,0.0,0.0,70,0.00,,CLR,0.00,VWS V12.08,2013-01-28 04:20:00,
2013-01-27 23:25:00,36.9,28.4,30.41,ESE,112,0.0,0.0,71,0.00,,CLR,0.00,VWS V12.08,2013-01-28 04:25:00,
2013-01-27 23:30:00,36.9,28.7,30.40,ESE,112,0.0,0.0,72,0.00,,CLR,0.00,VWS V12.08,2013-01-28 04:30:00,
2013-01-27 23:35:00,36.9,29.0,30.41,ESE,112,0.0,0.0,73,0.00,,CLR,0.00,VWS V12.08,2013-01-28 04:35:00,
2013-01-27 23:40:00,36.9,28.7,30.41,ESE,112,0.0,0.0,72,0.00,,CLR,0.00,VWS V12.08,2013-01-28 04:40:00,
2013-01-27 23:45:00,36.9,28.7,30.41,ESE,112,0.0,0.0,72,0.00,,CLR,0.00,VWS V12.08,2013-01-28 04:45:00,
2013-01-27 23:50:00,36.7,28.9,30.41,ESE,112,0.0,0.0,73,0.00,,CLR,0.00,VWS V12.08,2013-01-28 04:50:00,
2013-01-27 23:55:00,36.7,28.9,30.41,ESE,112,0.0,0.0,73,0.00,,CLR,0.00,VWS V12.08,2013-01-28 04:55:00,